Broomfield, CO

1:23 AM MST on November 22, 2017 (GMT -0700)
Jeffco

Weather History for KBJC - December, 2013

Change the Weather History Date:

Friday, December 13, 2013

  Actual Average Record
Temperature  
Mean Temperature 41 °F -  
Max Temperature 50 °F 43 °F 67 °F (1988)
Min Temperature 32 °F 24 °F -2 °F (1985)
Degree Days  
Heating Degree Days 24    
Moisture  
Dew Point 14 °F    
Average Humidity 44    
Maximum Humidity 60    
Minimum Humidity 19    
Precipitation  
Precipitation 0.00 in - - ()
Sea Level Pressure  
Sea Level Pressure 29.93 in    
Wind  
Wind Speed 5 mph (NE)    
Max Wind Speed 15 mph    
Max Gust Speed 17 mph    
Visibility 10 miles    
Events      
Averages and records for this station are not official NWS values.
T = Trace of Precipitation, MM = Missing Value Source: NWS Daily Summary

Daily Weather History Graph

Daily Weather History Graph

Search for Another Location

Airport or City:

Trip Planner

Search our weather history database for the weather conditions in past years. The results will help you decide how hot, cold, wet, or windy it might be!

Date:

Astronomy

Dec. 13, 2013 Rise Set
Actual Time 7:13 AM MST 4:35 PM MST
Civil Twilight 6:43 AM MST 5:06 PM MST
Nautical Twilight 6:09 AM MST 5:40 PM MST
Astronomical Twilight 5:36 AM MST 6:13 PM MST
Moon 2:20 PM MST (12/13) 3:39 AM MST (12/13)
Length of Visible Light 10h 23m
Length of Day
9h 22m
Waxing Gibbous, 88% of the Moon is Illuminated
Dec 13
Waxing Gibbous
Dec 17
Full
Dec 25
Last Quarter
Jan 1
New
Jan 7
First Quarter

Hourly Weather History & Observations

Time (MST) Temp. Windchill Dew Point Humidity Pressure Visibility Wind Dir Wind Speed Gust Speed Precip Events Conditions
12:15 AM 33.8 °F 26.4 °F 12.2 °F 41% 29.91 in 10.0 mi NNW 9.2 mph - N/A   Clear
12:35 AM 32.0 °F 25.6 °F 12.2 °F 44% 29.90 in 10.0 mi NNW 6.9 mph - N/A   Clear
12:55 AM 35.6 °F 29.9 °F 12.2 °F 38% 29.89 in 10.0 mi North 6.9 mph - N/A   Clear
1:15 AM 32.0 °F - 14.0 °F 48% 29.88 in 10.0 mi Calm Calm - N/A   Clear
1:34 AM 33.8 °F - 14.0 °F 44% 29.87 in 10.0 mi Calm Calm - N/A   Clear
1:55 AM 32.0 °F 28.7 °F 15.8 °F 51% 29.87 in 10.0 mi ESE 3.5 mph - N/A   Clear
2:15 AM 32.0 °F 27.5 °F 14.0 °F 48% 29.86 in 10.0 mi NE 4.6 mph - N/A   Clear
2:35 AM 32.0 °F - 14.0 °F 48% 29.86 in 10.0 mi Calm Calm - N/A   Clear
2:55 AM 32.0 °F - 14.0 °F 48% 29.86 in 10.0 mi Calm Calm - N/A   Clear
3:15 AM 33.8 °F - 14.0 °F 44% 29.86 in 10.0 mi Calm Calm - N/A   Clear
3:35 AM 32.0 °F - 12.2 °F 44% 29.85 in 10.0 mi Calm Calm - N/A   Clear
3:55 AM 32.0 °F - 14.0 °F 48% 29.84 in 10.0 mi Calm Calm - N/A   Clear
4:15 AM 32.0 °F - 14.0 °F 48% 29.84 in 10.0 mi Calm Calm - N/A   Clear
4:35 AM 32.0 °F - 12.2 °F 44% 29.84 in 10.0 mi Calm Calm - N/A   Clear
4:55 AM 32.0 °F - 12.2 °F 44% 29.84 in 10.0 mi Calm Calm - N/A   Clear
5:48 AM 32.0 °F 25.6 °F 10.4 °F 41% 29.83 in 25.0 mi West 6.9 mph - N/A   Clear
6:48 AM 32.0 °F - 8.6 °F 38% 29.83 in 60.0 mi Calm Calm - N/A   Partly Cloudy
7:47 AM 35.6 °F 30.7 °F 8.6 °F 33% 29.85 in 60.0 mi NNW 5.8 mph - N/A   Partly Cloudy
8:47 AM 41.0 °F - 12.2 °F 31% 29.88 in 60.0 mi Calm Calm - N/A   Partly Cloudy
9:47 AM 44.6 °F 41.4 °F 12.2 °F 27% 29.89 in 60.0 mi SSW 5.8 mph - N/A   Scattered Clouds
10:45 AM 46.4 °F 41.9 °F 10.4 °F 23% 29.88 in 60.0 mi SE 9.2 mph - N/A   Scattered Clouds
11:47 AM 48.2 °F - 10.4 °F 22% 29.84 in 60.0 mi SSE 8.1 mph - N/A   Scattered Clouds
12:45 PM 50.0 °F - 8.6 °F 19% 29.84 in 60.0 mi East 5.8 mph - N/A   Mostly Cloudy
1:50 PM 46.4 °F 40.1 °F 15.8 °F 29% 29.87 in 60.0 mi NE 15.0 mph - N/A   Mostly Cloudy
2:45 PM 44.6 °F 38.8 °F 15.8 °F 31% 29.92 in 30.0 mi NNE 11.5 mph 17.3 mph N/A   Mostly Cloudy
3:45 PM 42.8 °F 38.6 °F 15.8 °F 34% 29.95 in 30.0 mi North 6.9 mph - N/A   Mostly Cloudy
4:50 PM 37.4 °F 30.3 °F 17.6 °F 45% 29.98 in 50.0 mi NE 10.4 mph - N/A   Mostly Cloudy
5:52 PM 35.6 °F 29.2 °F 15.8 °F 44% 29.99 in 50.0 mi ENE 8.1 mph - N/A   Mostly Cloudy
6:45 PM 35.6 °F - 15.8 °F 44% 30.02 in 50.0 mi Calm Calm - N/A   Mostly Cloudy
7:50 PM 32.0 °F - 17.6 °F 55% 30.04 in 50.0 mi Calm Calm - N/A   Mostly Cloudy
8:54 PM 33.8 °F 30.8 °F 17.6 °F 52% 30.07 in 50.0 mi SSE 3.5 mph - N/A   Mostly Cloudy
9:45 PM 33.8 °F 29.6 °F 17.6 °F 52% 30.08 in 15.0 mi ESE 4.6 mph - N/A   Mostly Cloudy
10:15 PM 33.8 °F 27.7 °F 19.4 °F 56% 30.10 in 10.0 mi East 6.9 mph - N/A   Clear
10:35 PM 32.0 °F 25.6 °F 19.4 °F 60% 30.10 in 10.0 mi East 6.9 mph - N/A   Clear
10:55 PM 32.0 °F 25.6 °F 19.4 °F 60% 30.12 in 10.0 mi NE 6.9 mph - N/A   Clear
11:15 PM 32.0 °F 26.4 °F 19.4 °F 60% 30.13 in 10.0 mi ENE 5.8 mph - N/A   Scattered Clouds
11:35 PM 32.0 °F 25.6 °F 19.4 °F 60% 30.13 in 10.0 mi NE 6.9 mph - N/A   Scattered Clouds
11:55 PM 32.0 °F 26.4 °F 19.4 °F 60% 30.14 in 10.0 mi NNE 5.8 mph - N/A   Scattered Clouds